Station SNTO3 - Tom's Creek, South Slough Reserve, OR Image indicating link to RSS feed of recent meteorological observations for station SNTO3


Conditions at SNTO3 as of
(11:30 am PDT)
1830 GMT on 06/14/2024:
     

Click on the graph icon in the table below to see a time series plot of the last five days of that observation.

5-day plot - Wind Direction Wind Direction (WDIR): N ( 360 deg true )
5-day plot - Wind Speed Wind Speed (WSPD): 4.1 kts
5-day plot - Atmospheric Pressure Atmospheric Pressure (PRES):30.24 in
5-day plot - Air Temperature Air Temperature (ATMP): 60.3 °F
5-day plot - Dew Point Dew Point (DEWP): 44.2 °F
5-day plot -  Wind Speed, Wind Gust and Atmospheric Pressure Combined plot of Wind Speed, Gust, and Air Pressure
Previous observations
TIME
(PDT)
5-day plot - Wind Direction
WDIR
 
5-day plot - Wind Speed
WSPD
kts
5-day plot - Wind Gust
GST
kts
5-day plot - Wave Height
WVHT
ft
5-day plot - Dominant Wave Period
DPD
sec
5-day plot - Average Wave Period
APD
sec
5-day plot - Mean Wave Direction
MWD
 
5-day plot - Atmospheric Pressure
PRES
in
5-day plot - Pressure Tendency
PTDY
in
5-day plot - Air Temperature
ATMP
°F
5-day plot - Water Temperature
WTMP
°F
5-day plot - Dew Point
DEWP
°F
5-day plot - Salinity
SAL
psu
5-day plot - Visibility
VIS
nmi
5-day plot - Tide (above MLLW)
TIDE
ft
2024-06-14 11:15 am N 4.1-----30.24- 59.9- 47.5---
2024-06-14 11:00 amNNE 4.1-----30.24-0.03 59.4- 48.9---
2024-06-14 10:45 amNNE 2.9-----30.24- 59.0- 49.8---
2024-06-14 10:30 amNNW 5.1-----30.24- 58.3- 49.8---
2024-06-14 10:15 am N 4.1-----30.24- 58.3- 51.3---
2024-06-14 10:00 am N 2.9-----30.24+0.00 58.1- 51.1---
2024-06-14 09:45 amNNW 2.9-----30.24- 56.7- 51.3---
2024-06-14 09:30 am N 2.9-----30.27- 56.3- 51.6---
2024-06-14 09:15 amNNE 1.9-----30.24- 55.9- 54.0---
2024-06-14 09:00 am E 1.9-----30.24+0.00 54.5- 54.5---
2024-06-14 08:45 am- 0.0-----30.27- 52.9- 52.9---
2024-06-14 08:30 am- 0.0-----30.27- 51.3- 51.3---
2024-06-14 08:15 amSSE 1.0-----30.27- 50.4- 50.4---
2024-06-14 08:00 am- 0.0-----30.27+0.03 48.9- 48.9---
2024-06-14 07:45 am- 0.0-----30.24- 48.0- 48.0---
2024-06-14 07:30 am- 0.0-----30.24- 45.7- 45.7---
2024-06-14 07:15 am- 0.0-----30.24- 44.1- 44.1---
2024-06-14 07:00 am- 0.0-----30.24+0.00 42.6- 42.6---
2024-06-14 06:45 am- 0.0-----30.24- 42.3- 42.3---
2024-06-14 06:30 am- 0.0-----30.24- 42.3- 42.3---
2024-06-14 06:15 am- 0.0-----30.24- 42.3- 42.3---
2024-06-14 06:00 am- 0.0-----30.24+0.00 42.4- 42.4---
2024-06-14 05:45 am- 0.0-----30.24- 42.6- 42.6---
2024-06-14 05:30 am- 0.0-----30.24- 42.8- 42.8---
2024-06-14 05:15 am- 0.0-----30.24- 43.5- 43.5---
2024-06-14 05:00 am- 0.0-----30.24+0.00 43.9- 43.9---
2024-06-14 04:45 am- 0.0-----30.24- 44.2- 44.2---
2024-06-14 04:30 am- 0.0-----30.24- 44.6- 44.6---
2024-06-14 04:15 am- 0.0-----30.24- 45.3- 45.3---
2024-06-14 04:00 am- 0.0-----30.24+0.00 45.9- 45.9---
2024-06-14 03:45 am- 0.0-----30.24- 46.2- 46.2---
2024-06-14 03:30 am- 0.0-----30.24- 46.9- 46.9---
2024-06-14 03:15 am- 0.0-----30.24- 47.7- 47.7---
2024-06-14 03:00 am- 0.0-----30.24+0.00 48.2- 48.2---
2024-06-14 02:45 am- 0.0-----30.24- 48.9- 48.9---
2024-06-14 02:30 am- 0.0-----30.24- 50.0- 50.0---
2024-06-14 02:15 am- 0.0-----30.24- 50.7- 50.7---
2024-06-14 02:00 am- 0.0-----30.24+0.00 51.3- 51.3---
2024-06-14 01:45 am- 0.0-----30.24- 51.4- 51.4---
2024-06-14 01:30 am- 0.0-----30.24- 51.8- 51.8---
2024-06-14 01:15 am- 0.0-----30.24- 52.2- 52.2---
2024-06-14 01:00 am- 0.0-----30.24+0.03 52.2- 52.2---
2024-06-14 12:45 am- 0.0-----30.24- 52.2- 52.2---
2024-06-14 12:30 am- 0.0-----30.24- 52.3- 52.3---
2024-06-14 12:15 am N 1.0-----30.24- 52.2- 52.2---
2024-06-14 12:00 am NE 1.9-----30.24+0.03 52.3- 52.3---
2024-06-13 11:45 pm- 0.0-----30.24- 52.3- 52.3---
2024-06-13 11:30 pmENE 1.0-----30.24- 52.5- 52.5---
2024-06-13 11:15 pmENE 1.0-----30.24- 52.5- 52.5---
2024-06-13 11:00 pmNNE 1.0-----30.24+0.06 52.5- 52.5---
2024-06-13 10:45 pmNNE 1.9-----30.21- 52.5- 52.5---
2024-06-13 10:30 pm NE 1.9-----30.21- 52.5- 52.5---
2024-06-13 10:15 pm NE 1.9-----30.21- 52.7- 52.7---
2024-06-13 10:00 pm NE 1.9-----30.21+0.03 52.7- 52.7---
2024-06-13 09:45 pmENE 1.9-----30.21- 52.5- 52.5---
2024-06-13 09:30 pm NE 1.9-----30.21- 52.5- 52.5---
2024-06-13 09:15 pmNNE 2.9-----30.21- 52.7- 52.7---
2024-06-13 09:00 pmNNE 1.9-----30.21+0.03 52.9- 52.9---
2024-06-13 08:45 pmNNE 1.9-----30.21- 53.1- 53.1---
2024-06-13 08:30 pm NE 2.9-----30.21- 53.2- 52.7---
2024-06-13 08:15 pmNNE 4.1-----30.18- 53.6- 52.7---
2024-06-13 08:00 pmNNE 4.1-----30.18+0.03 53.8- 52.7---
2024-06-13 07:45 pmNNE 4.1-----30.21- 54.1- 52.5---
2024-06-13 07:30 pmNNE 4.1-----30.18- 54.7- 52.7---
2024-06-13 07:15 pmNNE 4.1-----30.18- 54.9- 52.7---
2024-06-13 07:00 pm N 4.1-----30.18+0.03 55.4- 52.3---
2024-06-13 06:45 pm N 4.1-----30.18- 56.1- 53.1---
2024-06-13 06:30 pmNNE 5.1-----30.18- 56.1- 53.6---
2024-06-13 06:15 pm N 6.0-----30.18- 55.8- 53.2---
2024-06-13 06:00 pmNNE 5.1-----30.18+0.03 56.3- 53.1---
2024-06-13 05:45 pmNNE 6.0-----30.18- 56.5- 53.2---
2024-06-13 05:30 pmNNE 6.0-----30.18- 56.1- 53.1---
2024-06-13 05:15 pmNNE 5.1-----30.18- 56.3- 53.4---
2024-06-13 05:00 pmNNE 5.1-----30.15+0.00 56.1- 53.2---
2024-06-13 04:45 pm N 5.1-----30.15- 56.1- 53.1---
2024-06-13 04:30 pmNNE 6.0-----30.15- 56.3- 53.1---
2024-06-13 04:15 pm N 6.0-----30.15- 56.8- 52.7---
2024-06-13 04:00 pmNNE 6.0-----30.15+0.00 56.8- 53.1---
2024-06-13 03:45 pm N 6.0-----30.15- 56.8- 52.7---
2024-06-13 03:30 pm N 7.0-----30.15- 56.8- 52.7---
2024-06-13 03:15 pm N 7.0-----30.15- 56.7- 52.5---
2024-06-13 03:00 pm N 7.0-----30.15+0.00 56.3- 52.9---
2024-06-13 02:45 pmNNE 6.0-----30.15- 57.0- 52.9---
2024-06-13 02:30 pm N 6.0-----30.15- 56.8- 52.7---
2024-06-13 02:15 pmNNE 6.0-----30.15- 56.8- 52.5---
2024-06-13 02:00 pm N 6.0-----30.15+0.00 56.5- 52.3---
2024-06-13 01:45 pm N 6.0-----30.15- 56.3- 52.5---
2024-06-13 01:30 pm N 7.0-----30.15- 55.8- 52.0---
2024-06-13 01:15 pm N 7.0-----30.15- 56.1- 52.0---
2024-06-13 01:00 pm N 7.0-----30.15+0.00 55.8- 52.0---
2024-06-13 12:45 pm N 7.0-----30.15- 55.4- 52.0---
2024-06-13 12:30 pm N 7.0-----30.15- 55.8- 51.6---
2024-06-13 12:15 pmNNE 7.0-----30.15- 55.8- 52.0---
2024-06-13 12:00 pmNNE 7.0-----30.15+0.00 55.9- 51.8---